Weather History for Thedford, NE

Change the Weather History Date:

Friday, May 11, 2012

  Actual Average (KLBF) Record (KLBF)
Temperature  
Mean Temperature 48 °F 56 °F  
Max Temperature 54 °F 70 °F 96 °F (1962)
Min Temperature 41 °F 42 °F 26 °F (1979)
Degree Days  
Heating Degree Days 17 9  
Month to date heating degree days 117  
Since 1 July heating degree days 6507  
Cooling Degree Days 0 1  
Month to date cooling degree days 1  
Year to date cooling degree days 4  
Moisture  
Dew Point 33 °F    
Average Humidity 61    
Maximum Humidity 90    
Minimum Humidity 43    
Precipitation  
Precipitation 0.03 in 0.09 in 1.38 in (1972)
Month to date precipitation 1.02  
Year to date precipitation 5.18  
Snow  
Snow 0.00 in 0.00 in 2.00 in (1905)
Month to date snowfall 0.0  
Since 1 July snowfall 28.5  
Snow Depth -    
Sea Level Pressure  
Sea Level Pressure 30.22 in    
Wind  
Wind Speed 11 mph (North)    
Max Wind Speed 22 mph    
Max Gust Speed 28 mph    
Visibility 10 miles    
Events Rain    
T = Trace of Precipitation, MM = Missing Value Source: NWS Daily Summary

Daily Weather History Graph

Daily Weather History Graph

Search for Another Location

Airport:

Trip Planner

Search our weather history database for the weather conditions in past years. The results will help you decide how hot, cold, wet, or windy it might be!

Date:

Astronomy

May. 11, 2012 Rise Set
Actual Time 6:25 AM CDT 8:52 PM CDT
Civil Twilight 5:54 AM CDT 9:24 PM CDT
Nautical Twilight 5:14 AM CDT 10:03 PM CDT
Astronomical Twilight 4:31 AM CDT 10:47 PM CDT
Moon 1:32 AM CDT (5/11) 12:01 PM CDT (5/11)
Length of Visible Light 15h 29m
Length of Day
14h 26m
Waning Gibbous, 63% of the Moon is Illuminated
May 11
Waning Gibbous
May 12
Last Quarter
May 20
New
May 28
First Quarter
Jun 4
Full

Hourly Weather History & Observations

Time (CDT) Temp. Windchill Dew Point Humidity Pressure Visibility Wind Dir Wind Speed Gust Speed Precip Events Conditions
12:15 AM 55.9 °F - 41.0 °F 57% 29.93 in 10.0 mi North 13.8 mph 19.6 mph N/A   Clear
12:35 AM 55.2 °F - 40.5 °F 58% 29.95 in 10.0 mi NNW 10.4 mph 18.4 mph N/A   Clear
12:55 AM 54.5 °F - 39.7 °F 57% 29.97 in 10.0 mi NNW 16.1 mph 23.0 mph N/A   Clear
1:15 AM 54.0 °F - 39.2 °F 57% 29.98 in 10.0 mi North 13.8 mph 23.0 mph N/A   Clear
1:35 AM 53.2 °F - 39.2 °F 59% 29.99 in 10.0 mi North 17.3 mph 23.0 mph N/A   Clear
1:55 AM 52.7 °F - 38.7 °F 59% 30.00 in 10.0 mi North 16.1 mph 23.0 mph N/A   Clear
2:15 AM 52.0 °F - 37.8 °F 58% 30.01 in 10.0 mi North 13.8 mph 23.0 mph N/A   Clear
2:35 AM 51.4 °F - 36.1 °F 56% 30.02 in 10.0 mi North 13.8 mph 21.9 mph N/A   Clear
2:55 AM 50.9 °F - 36.3 °F 57% 30.03 in 10.0 mi North 15.0 mph 19.6 mph N/A   Clear
3:15 AM 49.6 °F - 36.9 °F 61% 30.04 in 10.0 mi North 10.4 mph 16.1 mph N/A   Clear
3:35 AM 49.1 °F - 36.7 °F 62% 30.06 in 10.0 mi NNW 10.4 mph 17.3 mph N/A   Clear
3:55 AM 49.1 °F - 32.7 °F 53% 30.07 in 10.0 mi North 13.8 mph 21.9 mph N/A   Clear
4:15 AM 48.4 °F - 32.9 °F 55% 30.07 in 10.0 mi North 16.1 mph 21.9 mph N/A   Clear
4:35 AM 47.3 °F - 32.2 °F 56% 30.08 in 10.0 mi North 16.1 mph 23.0 mph N/A   Clear
4:55 AM 46.9 °F - 32.0 °F 56% 30.10 in 10.0 mi North 11.5 mph 21.9 mph N/A   Clear
5:15 AM 46.4 °F 41.5 °F 30.9 °F 55% 30.11 in 10.0 mi North 10.4 mph 23.0 mph N/A   Clear
5:35 AM 45.1 °F 40.8 °F 32.2 °F 60% 30.11 in 10.0 mi North 8.1 mph - N/A   Clear
5:55 AM 44.6 °F 39.2 °F 33.1 °F 64% 30.12 in 10.0 mi North 10.4 mph - N/A   Clear
6:15 AM 43.9 °F 39.3 °F 32.9 °F 65% 30.14 in 10.0 mi North 8.1 mph - N/A   Clear
6:35 AM 43.9 °F 39.3 °F 33.1 °F 66% 30.15 in 10.0 mi North 8.1 mph - N/A   Clear
6:55 AM 44.6 °F 39.7 °F 32.0 °F 61% 30.16 in 10.0 mi North 9.2 mph - N/A   Clear
7:15 AM 45.1 °F 39.1 °F 32.0 °F 60% 30.17 in 10.0 mi North 12.7 mph 17.3 mph N/A   Clear
7:35 AM 45.5 °F 40.8 °F 32.9 °F 61% 30.17 in 10.0 mi North 9.2 mph 16.1 mph N/A   Scattered Clouds
7:55 AM 46.4 °F 40.7 °F 33.6 °F 61% 30.18 in 10.0 mi North 12.7 mph 18.4 mph N/A   Overcast
8:15 AM 45.9 °F 39.7 °F 34.0 °F 63% 30.20 in 10.0 mi North 13.8 mph 18.4 mph N/A   Overcast
8:55 AM 45.9 °F 41.7 °F 35.6 °F 67% 30.21 in 10.0 mi North 8.1 mph 18.4 mph N/A   Overcast
9:15 AM 46.4 °F 41.5 °F 34.5 °F 63% 30.22 in 10.0 mi North 10.4 mph - N/A   Overcast
9:35 AM 47.1 °F - 32.7 °F 57% 30.22 in 10.0 mi NNW 16.1 mph 20.7 mph N/A   Overcast
9:55 AM 47.3 °F - 31.6 °F 55% 30.23 in 10.0 mi North 9.2 mph 20.7 mph N/A   Overcast
10:15 AM 47.7 °F - 30.9 °F 52% 30.23 in 10.0 mi North 15.0 mph 21.9 mph N/A   Overcast
10:35 AM 49.1 °F - 31.1 °F 50% 30.24 in 10.0 mi North 11.5 mph 18.4 mph N/A   Overcast
10:55 AM 50.2 °F - 28.8 °F 44% 30.24 in 10.0 mi North 15.0 mph 24.2 mph N/A   Overcast
11:15 AM 51.3 °F - 30.2 °F 44% 30.25 in 10.0 mi North 20.7 mph 25.3 mph N/A   Overcast
11:35 AM 50.4 °F - 29.7 °F 45% 30.26 in 10.0 mi North 20.7 mph 24.2 mph N/A   Overcast
11:55 AM 50.0 °F - 28.4 °F 43% 30.28 in 10.0 mi North 15.0 mph 24.2 mph N/A   Overcast
12:15 PM 49.5 °F - 30.0 °F 47% 30.28 in 10.0 mi North 15.0 mph 26.5 mph N/A   Overcast
12:55 PM 48.6 °F - 29.8 °F 48% 30.28 in 10.0 mi North 21.9 mph 27.6 mph N/A   Overcast
1:15 PM 48.6 °F - 30.2 °F 49% 30.29 in 10.0 mi North 16.1 mph 26.5 mph N/A   Overcast
1:35 PM 48.2 °F - 29.8 °F 49% 30.29 in 10.0 mi North 17.3 mph 24.2 mph N/A   Overcast
1:55 PM 48.2 °F - 30.2 °F 50% 30.30 in 10.0 mi North 11.5 mph 19.6 mph N/A   Overcast
2:15 PM 47.3 °F - 32.0 °F 55% 30.31 in 10.0 mi North 8.1 mph 18.4 mph N/A   Overcast
2:35 PM 47.5 °F - 32.0 °F 55% 30.31 in 10.0 mi North 9.2 mph - N/A Rain Light Rain
2:55 PM 47.7 °F - 30.0 °F 50% 30.31 in 10.0 mi North 9.2 mph - N/A   Overcast
3:15 PM 48.7 °F - 30.0 °F 48% 30.32 in 10.0 mi North 12.7 mph - N/A   Overcast
3:35 PM 48.0 °F - 27.3 °F 45% 30.31 in 10.0 mi North 9.2 mph 16.1 mph N/A   Overcast
3:55 PM 48.4 °F - 27.5 °F 44% 30.32 in 10.0 mi North 9.2 mph 17.3 mph N/A   Overcast
4:15 PM 47.7 °F - 29.1 °F 49% 30.31 in 10.0 mi North 9.2 mph 16.1 mph N/A   Overcast
4:35 PM 47.1 °F - 28.9 °F 49% 30.31 in 10.0 mi North 11.5 mph 16.1 mph N/A   Overcast
4:55 PM 46.8 °F - 30.2 °F 53% 30.31 in 10.0 mi North 8.1 mph - N/A   Overcast
5:15 PM 45.3 °F 40.6 °F 32.0 °F 60% 30.30 in 10.0 mi North 9.2 mph - N/A Rain Rain
5:35 PM 44.8 °F 39.4 °F 31.3 °F 59% 30.30 in 10.0 mi NNE 10.4 mph 16.1 mph N/A Rain Rain
5:55 PM 46.0 °F 43.1 °F 32.0 °F 58% 30.30 in 10.0 mi NNE 5.8 mph - N/A   Overcast
6:15 PM 46.4 °F 41.1 °F 27.7 °F 48% 30.29 in 10.0 mi NNE 11.5 mph 16.1 mph N/A   Overcast
6:35 PM 46.2 °F 42.7 °F 28.0 °F 49% 30.29 in 10.0 mi NNE 6.9 mph - N/A Rain Light Rain
6:55 PM 44.8 °F 43.3 °F 31.8 °F 60% 30.30 in 10.0 mi North 3.5 mph - N/A Rain Light Rain
7:15 PM 45.0 °F 38.5 °F 30.7 °F 57% 30.31 in 10.0 mi NNW 13.8 mph - N/A Rain Light Rain
7:35 PM 42.1 °F 37.7 °F 33.3 °F 71% 30.32 in 10.0 mi North 6.9 mph - N/A Rain Rain
7:55 PM 41.9 °F 39.0 °F 34.9 °F 76% 30.32 in 10.0 mi NE 4.6 mph - N/A   Light Drizzle
8:15 PM 41.9 °F 40.0 °F 35.2 °F 77% 30.33 in 10.0 mi NE 3.5 mph - N/A Rain Rain
8:35 PM 41.9 °F - 35.6 °F 78% 30.33 in 10.0 mi Calm Calm - N/A Rain Light Rain
8:55 PM 41.9 °F - 36.3 °F 81% 30.34 in 10.0 mi Calm Calm - N/A Rain Light Rain
9:15 PM 41.4 °F - 37.0 °F 85% 30.35 in 10.0 mi Calm Calm - 0.01 in Rain Light Rain
9:35 PM 41.5 °F - 36.7 °F 83% 30.35 in 10.0 mi Calm Calm - 0.01 in Rain Light Rain
9:55 PM 41.5 °F - 37.9 °F 87% 30.36 in 10.0 mi Calm Calm - 0.02 in Rain Light Rain
10:15 PM 41.4 °F - 38.1 °F 88% 30.36 in 10.0 mi Calm Calm - 0.01 in Rain Light Rain
10:35 PM 41.2 °F - 38.3 °F 89% 30.37 in 10.0 mi Calm Calm - 0.01 in   Overcast
10:55 PM 41.2 °F - 38.5 °F 90% 30.38 in 10.0 mi Calm Calm - 0.01 in   Overcast
11:15 PM 41.5 °F - 38.5 °F 89% 30.37 in 10.0 mi Calm Calm - N/A   Overcast
11:35 PM 41.4 °F - 37.9 °F 88% 30.37 in 10.0 mi Calm Calm - N/A   Overcast
11:55 PM 41.2 °F - 38.5 °F 90% 30.37 in 10.0 mi Calm Calm - N/A   Overcast